| time (UTC) | temp C | wind direction | speed KPH | gust KPH | rain 1hr cm | rain 24hr cm | rain mn cm | humidity % | barometer mb |
| 20260905081236 | 25 | 220 | 0.0 | 17.7 | 0.00 | 0.00 | 0.00 | 89 | 1010.8 |
| 20260905080736 | 25 | 220 | 0.0 | 17.7 | 0.00 | 0.00 | 0.00 | 89 | 1010.6 |
| 20260905080235 | 25 | 220 | 0.0 | 17.7 | 0.00 | 0.00 | 0.00 | 89 | 1010.8 |
| 20260905075735 | 25 | 220 | 0.0 | 17.7 | 0.00 | 0.00 | 0.00 | 88 | 1010.3 |
| 20260905075235 | 25 | 220 | 0.0 | 17.7 | 0.00 | 0.00 | 0.00 | 88 | 1010.2 |
| 20260905074219 | 25 | 220 | 0.0 | 17.7 | 0.00 | 0.00 | 0.00 | 88 | 1010.1 |
| 20260905073718 | 25 | 220 | 1.6 | 17.7 | 0.00 | 0.00 | 0.00 | 88 | 1010.1 |
| 20260905073218 | 25 | 177 | 1.6 | 17.7 | 0.00 | 0.00 | 0.00 | 88 | 1009.8 |
| 20260905072717 | 25 | 198 | 3.2 | 17.7 | 0.00 | 0.00 | 0.00 | 88 | 1010.1 |
| 20260905072216 | 25 | 207 | 3.2 | 17.7 | 0.00 | 0.00 | 0.00 | 88 | 1010.0 |
| 20260905071716 | 25 | 204 | 1.6 | 17.7 | 0.00 | 0.00 | 0.00 | 88 | 1010.1 |
| 20260905071215 | 25 | 204 | 0.0 | 17.7 | 0.00 | 0.00 | 0.00 | 88 | 1010.0 |
| 20260905070714 | 25 | 204 | 1.6 | 17.7 | 0.00 | 0.00 | 0.00 | 88 | 1010.2 |
| 20260905070211 | 25 | 204 | 1.6 | 17.7 | 0.00 | 0.00 | 0.00 | 87 | 1010.1 |
| 20260905065154 | 25 | 190 | 1.6 | 17.7 | 0.00 | 0.00 | 0.00 | 87 | 1010.0 |
| 20260905064139 | 25 | 201 | 3.2 | 17.7 | 0.00 | 0.00 | 0.00 | 87 | 1010.4 |
| 20260905063639 | 25 | 193 | 3.2 | 17.7 | 0.00 | 0.00 | 0.00 | 87 | 1010.5 |
| 20260905063139 | 25 | 213 | 3.2 | 17.7 | 0.00 | 0.00 | 0.00 | 87 | 1010.8 |
| 20260905062638 | 25 | 197 | 0.0 | 17.7 | 0.00 | 0.00 | 0.00 | 87 | 1010.5 |
| 20260905061622 | 25 | 199 | 1.6 | 17.7 | 0.00 | 0.00 | 0.00 | 86 | 1010.9 |
| 20260905061122 | 25 | 200 | 0.0 | 17.7 | 0.00 | 0.00 | 0.00 | 86 | 1010.5 |
| 20260905060621 | 25 | 199 | 3.2 | 17.7 | 0.00 | 0.00 | 0.00 | 86 | 1011.1 |
| 20260905055605 | 25 | 196 | 3.2 | 17.7 | 0.00 | 0.00 | 0.00 | 87 | 1010.9 |
| 20260905055105 | 25 | 197 | 1.6 | 17.7 | 0.00 | 0.00 | 0.00 | 87 | 1011.4 |
| 20260905053017 | 25 | 187 | 0.0 | 17.7 | 0.00 | 0.00 | 0.00 | 87 | 1011.2 |
| 20260905052518 | 25 | 179 | 1.6 | 17.7 | 0.00 | 0.00 | 0.00 | 87 | 1011.4 |
| 20260905051502 | 25 | 159 | 0.0 | 17.7 | 0.00 | 0.00 | 0.00 | 87 | 1011.4 |
| 20260905051002 | 25 | 159 | 1.6 | 17.7 | 0.00 | 0.00 | 0.00 | 87 | 1011.2 |
| 20260905050502 | 25 | 159 | 1.6 | 17.7 | 0.00 | 0.00 | 0.00 | 87 | 1011.2 |
| 20260905050003 | 25 | 158 | 0.0 | 17.7 | 0.00 | 0.00 | 0.00 | 87 | 1011.2 |
| 20260905045502 | 25 | 158 | 0.0 | 17.7 | 0.00 | 0.00 | 0.00 | 86 | 1011.6 |
| 20260905045002 | 25 | 158 | 0.0 | 17.7 | 0.00 | 0.00 | 0.00 | 86 | 1011.6 |
| 20260905043431 | 25 | 158 | 0.0 | 17.7 | 0.00 | 0.00 | 0.00 | 86 | 1011.5 |
| 20260905042930 | 25 | 158 | 0.0 | 17.7 | 0.00 | 0.00 | 0.00 | 86 | 1011.3 |
| 20260905042429 | 25 | 158 | 0.0 | 17.7 | 0.00 | 0.00 | 0.00 | 86 | 1011.3 |
| 20260905041928 | 25 | 158 | 0.0 | 17.7 | 0.00 | 0.00 | 0.00 | 86 | 1011.4 |
| 20260905041427 | 25 | 157 | 1.6 | 17.7 | 0.00 | 0.00 | 0.00 | 87 | 1011.5 |
| 20260905040927 | 25 | 156 | 0.0 | 17.7 | 0.00 | 0.00 | 0.00 | 87 | 1011.3 |
| 20260905040426 | 25 | 156 | 0.0 | 17.7 | 0.00 | 0.00 | 0.00 | 86 | 1011.7 |
| 20260905035411 | 25 | 156 | 0.0 | 17.7 | 0.00 | 0.00 | 0.00 | 86 | 1011.6 |
| 20260905034911 | 25 | 156 | 0.0 | 17.7 | 0.00 | 0.00 | 0.00 | 86 | 1011.4 |
| 20260905034410 | 25 | 156 | 0.0 | 17.7 | 0.00 | 0.00 | 0.00 | 86 | 1011.8 |
| 20260905033910 | 25 | 156 | 0.0 | 17.7 | 0.00 | 0.00 | 0.00 | 86 | 1011.5 |
| 20260905033411 | 25 | 156 | 0.0 | 17.7 | 0.00 | 0.00 | 0.00 | 86 | 1011.9 |
| 20260905032355 | 25 | 156 | 0.0 | 17.7 | 0.00 | 0.00 | 0.00 | 86 | 1011.4 |
| 20260905031853 | 26 | 156 | 0.0 | 17.7 | 0.00 | 0.00 | 0.00 | 85 | 1011.6 |
| 20260905031352 | 26 | 156 | 0.0 | 17.7 | 0.00 | 0.00 | 0.00 | 85 | 1011.7 |
| 20260905030852 | 26 | 156 | 0.0 | 17.7 | 0.00 | 0.00 | 0.00 | 85 | 1011.6 |
| 20260905025837 | 26 | 156 | 0.0 | 17.7 | 0.00 | 0.00 | 0.00 | 85 | 1011.6 |
| 20260905025337 | 26 | 156 | 0.0 | 17.7 | 0.00 | 0.00 | 0.00 | 85 | 1011.4 |
| 20260905024322 | 26 | 156 | 0.0 | 17.7 | 0.00 | 0.00 | 0.00 | 84 | 1011.4 |
| 20260905023822 | 26 | 156 | 1.6 | 17.7 | 0.00 | 0.00 | 0.00 | 85 | 1011.4 |
| 20260905023322 | 26 | 156 | 0.0 | 17.7 | 0.00 | 0.00 | 0.00 | 84 | 1011.4 |
| 20260905022821 | 26 | 156 | 0.0 | 17.7 | 0.00 | 0.00 | 0.00 | 84 | 1011.5 |
| 20260905022321 | 26 | 156 | 0.0 | 17.7 | 0.00 | 0.00 | 0.00 | 84 | 1011.3 |
| 20260905021821 | 26 | 156 | 1.6 | 17.7 | 0.00 | 0.00 | 0.00 | 83 | 1011.4 |
| 20260905021321 | 26 | 182 | 0.0 | 17.7 | 0.00 | 0.00 | 0.00 | 83 | 1011.2 |
| 20260905020820 | 26 | 191 | 0.0 | 17.7 | 0.00 | 0.00 | 0.00 | 83 | 1011.6 |
| 20260905020319 | 26 | 191 | 0.0 | 17.7 | 0.00 | 0.00 | 0.00 | 83 | 1011.7 |
| 20260905015819 | 26 | 191 | 0.0 | 17.7 | 0.00 | 0.00 | 0.00 | 83 | 1011.4 |
| 20260905015319 | 26 | 191 | 0.0 | 17.7 | 0.00 | 0.00 | 0.00 | 83 | 1011.4 |
| 20260905013746 | 26 | 191 | 0.0 | 17.7 | 0.00 | 0.00 | 0.00 | 84 | 1011.5 |
| 20260905013246 | 26 | 191 | 0.0 | 17.7 | 0.00 | 0.00 | 0.00 | 84 | 1011.2 |
| 20260905012230 | 26 | 189 | 0.0 | 17.7 | 0.00 | 0.00 | 0.00 | 84 | 1011.2 |
| 20260905011729 | 27 | 188 | 0.0 | 17.7 | 0.00 | 0.00 | 0.00 | 83 | 1011.2 |
| 20260905011225 | 27 | 188 | 0.0 | 17.7 | 0.00 | 0.00 | 0.00 | 83 | 1010.9 |
| 20260905010725 | 27 | 175 | 1.6 | 17.7 | 0.00 | 0.00 | 0.00 | 83 | 1011.0 |
| 20260905010224 | 27 | 140 | 0.0 | 17.7 | 0.00 | 0.00 | 0.00 | 83 | 1011.1 |
| 20260905005724 | 27 | 141 | 1.6 | 17.7 | 0.00 | 0.00 | 0.00 | 82 | 1011.1 |
| 20260905005223 | 27 | 171 | 0.0 | 17.7 | 0.00 | 0.00 | 0.00 | 82 | 1010.9 |
| 20260905004723 | 27 | 171 | 0.0 | 17.7 | 0.00 | 0.00 | 0.00 | 83 | 1011.1 |
| 20260905004223 | 27 | 171 | 1.6 | 17.7 | 0.00 | 0.00 | 0.00 | 83 | 1010.5 |
| 20260905003721 | 27 | 169 | 0.0 | 17.7 | 0.00 | 0.00 | 0.00 | 83 | 1010.8 |
| 20260905003221 | 27 | 164 | 1.6 | 17.7 | 0.00 | 0.00 | 0.00 | 83 | 1010.9 |
| 20260905002720 | 27 | 151 | 3.2 | 17.7 | 0.00 | 0.00 | 0.00 | 82 | 1010.6 |
| 20260905002219 | 27 | 138 | 0.0 | 17.7 | 0.00 | 0.00 | 0.00 | 82 | 1011.0 |
| 20260905001202 | 27 | 130 | 0.0 | 17.7 | 0.00 | 0.00 | 0.00 | 82 | 1010.8 |
| 20260905000702 | 28 | 164 | 0.0 | 17.7 | 0.00 | 0.00 | 0.00 | 83 | 1011.0 |
| 20260905000204 | 28 | 164 | 3.2 | 17.7 | 0.00 | 0.00 | 0.00 | 81 | 1010.7 |
| 20260904235700 | 28 | 151 | 0.0 | 17.7 | 0.00 | 0.00 | 0.00 | 82 | 1011.0 |
| 20260904234644 | 29 | 149 | 0.0 | 17.7 | 0.00 | 0.00 | 0.00 | 81 | 1010.8 |
| 20260904234143 | 29 | 144 | 1.6 | 17.7 | 0.00 | 0.00 | 0.00 | 80 | 1010.9 |
| 20260904233643 | 30 | 159 | 4.8 | 17.7 | 0.00 | 0.00 | 0.00 | 79 | 1010.6 |
| 20260904233142 | 30 | 82 | 3.2 | 17.7 | 0.00 | 0.00 | 0.00 | 77 | 1010.9 |
| 20260904232127 | 31 | 146 | 1.6 | 17.7 | 0.00 | 0.00 | 0.00 | 75 | 1010.3 |
| 20260904231112 | 31 | 87 | 1.6 | 17.7 | 0.00 | 0.00 | 0.00 | 73 | 1011.1 |
| 20260904230611 | 31 | 79 | 1.6 | 17.7 | 0.00 | 0.00 | 0.00 | 72 | 1010.6 |
| 20260904230110 | 31 | 81 | 0.0 | 17.7 | 0.00 | 0.00 | 0.00 | 72 | 1010.5 |
| 20260904225610 | 32 | 80 | 0.0 | 17.7 | 0.00 | 0.00 | 0.00 | 71 | 1010.7 |
| 20260904225109 | 32 | 65 | 1.6 | 17.7 | 0.00 | 0.00 | 0.00 | 70 | 1010.8 |
| 20260904224609 | 32 | 90 | 0.0 | 17.7 | 0.00 | 0.00 | 0.00 | 69 | 1010.8 |
| 20260904224109 | 32 | 359 | 0.0 | 17.7 | 0.00 | 0.00 | 0.00 | 68 | 1010.9 |
| 20260904223609 | 32 | 114 | 0.0 | 17.7 | 0.00 | 0.00 | 0.00 | 68 | 1010.7 |
| 20260904222554 | 32 | 141 | 3.2 | 17.7 | 0.00 | 0.00 | 0.00 | 67 | 1012.3 |
| 20260904221022 | 33 | 78 | 4.8 | 17.7 | 0.00 | 0.00 | 0.00 | 66 | 1011.5 |
| 20260904220522 | 33 | 147 | 3.2 | 17.7 | 0.00 | 0.00 | 0.00 | 66 | 1011.7 |
| 20260904220022 | 33 | 157 | 1.6 | 17.7 | 0.00 | 0.00 | 0.00 | 65 | 1011.0 |
| 20260904215522 | 33 | 59 | 1.6 | 17.7 | 0.00 | 0.00 | 0.00 | 65 | 1010.9 |
| 20260904215022 | 33 | 110 | 0.0 | 17.7 | 0.00 | 0.00 | 0.00 | 64 | 1011.0 |
| 20260904214521 | 33 | 162 | 3.2 | 17.7 | 0.00 | 0.00 | 0.00 | 63 | 1010.8 |
| 20260904214021 | 33 | 104 | 1.6 | 17.7 | 0.00 | 0.00 | 0.00 | 63 | 1011.0 |
| 20260904213521 | 33 | 87 | 1.6 | 17.7 | 0.00 | 0.00 | 0.00 | 62 | 1011.2 |
| 20260904213021 | 33 | 62 | 4.8 | 17.7 | 0.00 | 0.00 | 0.00 | 62 | 1011.6 |
| 20260904212521 | 33 | 46 | 4.8 | 17.7 | 0.00 | 0.00 | 0.00 | 61 | 1011.9 |
| 20260904212021 | 33 | 65 | 1.6 | 17.7 | 0.00 | 0.00 | 0.00 | 60 | 1011.5 |
| 20260904211521 | 33 | 68 | 3.2 | 17.7 | 0.00 | 0.00 | 0.00 | 63 | 1011.5 |
| 20260904211021 | 32 | 74 | 0.0 | 17.7 | 0.00 | 0.00 | 0.00 | 64 | 1011.1 |
| 20260904210521 | 32 | 57 | 1.6 | 17.7 | 0.00 | 0.00 | 0.00 | 65 | 1011.1 |
| 20260904210021 | 32 | 45 | 11.3 | 17.7 | 0.00 | 0.00 | 0.00 | 65 | 1011.0 |
| 20260904205521 | 32 | 143 | 1.6 | 20.9 | 0.00 | 0.00 | 0.00 | 66 | 1010.6 |
| 20260904205020 | 32 | 183 | 6.4 | 20.9 | 0.00 | 0.00 | 0.00 | 66 | 1011.2 |
| 20260904204519 | 32 | 102 | 3.2 | 20.9 | 0.00 | 0.00 | 0.00 | 65 | 1011.1 |
| 20260904204019 | 32 | 162 | 1.6 | 20.9 | 0.00 | 0.00 | 0.00 | 65 | 1011.2 |
| 20260904203519 | 32 | 143 | 3.2 | 20.9 | 0.00 | 0.00 | 0.00 | 65 | 1011.2 |
| 20260904203019 | 32 | 145 | 4.8 | 20.9 | 0.00 | 0.00 | 0.00 | 63 | 1011.3 |
| 20260904202518 | 32 | 155 | 3.2 | 20.9 | 0.00 | 0.00 | 0.00 | 61 | 1011.5 |
| 20260904202018 | 33 | 162 | 4.8 | 20.9 | 0.00 | 0.00 | 0.00 | 61 | 1011.6 |
| 20260904201517 | 34 | 142 | 8.0 | 20.9 | 0.00 | 0.00 | 0.00 | 59 | 1011.3 |
| 20260904201017 | 35 | 162 | 6.4 | 20.9 | 0.00 | 0.00 | 0.00 | 57 | 1011.6 |
| 20260904200517 | 35 | 173 | 4.8 | 20.9 | 0.00 | 0.00 | 0.00 | 55 | 1011.7 |
| 20260904200017 | 36 | 188 | 4.8 | 20.9 | 0.00 | 0.00 | 0.00 | 53 | 1011.4 |
| 20260904195517 | 36 | 174 | 3.2 | 20.9 | 0.00 | 0.00 | 0.00 | 53 | 1012.0 |
| 20260904195016 | 36 | 141 | 6.4 | 20.9 | 0.00 | 0.00 | 0.00 | 54 | 1011.4 |
| 20260904194516 | 36 | 170 | 4.8 | 20.9 | 0.00 | 0.00 | 0.00 | 53 | 1011.6 |
| 20260904194015 | 36 | 220 | 3.2 | 20.9 | 0.00 | 0.00 | 0.00 | 53 | 1011.8 |
| 20260904192444 | 36 | 298 | 6.4 | 17.7 | 0.00 | 0.00 | 0.00 | 53 | 1012.3 |
| 20260904191943 | 35 | 309 | 6.4 | 17.7 | 0.00 | 0.00 | 0.00 | 54 | 1012.1 |
| 20260904191442 | 35 | 312 | 6.4 | 17.7 | 0.00 | 0.00 | 0.00 | 54 | 1012.2 |
| 20260904190941 | 34 | 312 | 3.2 | 17.7 | 0.00 | 0.00 | 0.00 | 55 | 1013.1 |
| 20260904190440 | 34 | 332 | 1.6 | 17.7 | 0.00 | 0.00 | 0.00 | 54 | 1012.6 |
| 20260904185424 | 35 | 42 | 3.2 | 20.9 | 0.00 | 0.00 | 0.00 | 55 | 1012.3 |
| 20260904184921 | 36 | 301 | 4.8 | 20.9 | 0.00 | 0.00 | 0.00 | 52 | 1012.3 |
| 20260904184420 | 36 | 306 | 6.4 | 17.7 | 0.00 | 0.00 | 0.00 | 48 | 1012.7 |
| 20260904183919 | 37 | 291 | 6.4 | 17.7 | 0.00 | 0.00 | 0.00 | 46 | 1012.6 |
| 20260904183418 | 37 | 252 | 4.8 | 17.7 | 0.00 | 0.00 | 0.00 | 46 | 1013.0 |
| 20260904182918 | 37 | 253 | 4.8 | 17.7 | 0.00 | 0.00 | 0.00 | 45 | 1012.6 |
| 20260904182417 | 37 | 246 | 6.4 | 17.7 | 0.00 | 0.00 | 0.00 | 45 | 1012.9 |
| 20260904181917 | 37 | 277 | 3.2 | 17.7 | 0.00 | 0.00 | 0.00 | 46 | 1012.8 |
| 20260904181416 | 37 | 287 | 3.2 | 17.7 | 0.00 | 0.00 | 0.00 | 46 | 1012.9 |
| 20260904180915 | 37 | 258 | 6.4 | 17.7 | 0.00 | 0.00 | 0.00 | 45 | 1013.0 |
| 20260904180414 | 37 | 279 | 4.8 | 17.7 | 0.00 | 0.00 | 0.00 | 46 | 1013.1 |
| 20260904175914 | 37 | 238 | 3.2 | 17.7 | 0.00 | 0.00 | 0.00 | 46 | 1013.0 |
| 20260904175413 | 37 | 244 | 8.0 | 17.7 | 0.00 | 0.00 | 0.00 | 46 | 1013.1 |
| 20260904174912 | 37 | 240 | 8.0 | 17.7 | 0.00 | 0.00 | 0.00 | 46 | 1013.4 |
| 20260904173856 | 37 | 268 | 4.8 | 17.7 | 0.00 | 0.00 | 0.00 | 47 | 1013.3 |
| 20260904173355 | 36 | 250 | 6.4 | 17.7 | 0.00 | 0.00 | 0.00 | 49 | 1013.3 |
| 20260904172855 | 36 | 270 | 6.4 | 17.7 | 0.00 | 0.00 | 0.00 | 49 | 1013.5 |
| 20260904172354 | 36 | 277 | 3.2 | 17.7 | 0.00 | 0.00 | 0.00 | 49 | 1013.5 |
| 20260904171853 | 37 | 273 | 6.4 | 17.7 | 0.00 | 0.00 | 0.00 | 48 | 1013.4 |
| 20260904170837 | 37 | 286 | 6.4 | 17.7 | 0.00 | 0.00 | 0.00 | 50 | 1013.7 |
| 20260904170336 | 37 | 212 | 4.8 | 17.7 | 0.00 | 0.00 | 0.00 | 51 | 1013.4 |
| 20260904165836 | 37 | 256 | 6.4 | 17.7 | 0.00 | 0.00 | 0.00 | 50 | 1013.8 |
| 20260904165336 | 36 | 253 | 4.8 | 17.7 | 0.00 | 0.00 | 0.00 | 51 | 1014.0 |
| 20260904164320 | 36 | 229 | 8.0 | 19.3 | 0.00 | 0.00 | 0.00 | 52 | 1013.7 |
| 20260904163304 | 36 | 232 | 3.2 | 20.9 | 0.00 | 0.00 | 0.00 | 54 | 1013.8 |
| 20260904162803 | 35 | 265 | 8.0 | 20.9 | 0.00 | 0.00 | 0.00 | 54 | 1013.8 |
| 20260904162305 | 36 | 253 | 6.4 | 20.9 | 0.00 | 0.00 | 0.00 | 53 | 1013.7 |
| 20260904161802 | 36 | 267 | 8.0 | 20.9 | 0.00 | 0.00 | 0.00 | 54 | 1014.0 |
| 20260904161301 | 35 | 230 | 4.8 | 20.9 | 0.00 | 0.00 | 0.00 | 55 | 1013.7 |
| 20260904160800 | 35 | 215 | 4.8 | 20.9 | 0.00 | 0.00 | 0.00 | 55 | 1013.8 |
| 20260904160259 | 35 | 246 | 4.8 | 19.3 | 0.00 | 0.00 | 0.00 | 55 | 1013.6 |
| 20260904155243 | 35 | 217 | 6.4 | 19.3 | 0.00 | 0.00 | 0.00 | 55 | 1013.7 |
| 20260904154742 | 35 | 206 | 6.4 | 19.3 | 0.00 | 0.00 | 0.00 | 56 | 1013.8 |
| 20260904154242 | 35 | 229 | 4.8 | 19.3 | 0.00 | 0.00 | 0.00 | 56 | 1013.9 |
| 20260904153742 | 35 | 210 | 6.4 | 19.3 | 0.00 | 0.00 | 0.00 | 57 | 1013.9 |
| 20260904153242 | 34 | 237 | 6.4 | 19.3 | 0.00 | 0.00 | 0.00 | 58 | 1013.8 |
| 20260904152225 | 34 | 213 | 6.4 | 19.3 | 0.00 | 0.00 | 0.00 | 59 | 1014.0 |
| 20260904151724 | 34 | 213 | 6.4 | 19.3 | 0.00 | 0.00 | 0.00 | 59 | 1014.0 |
| 20260904151223 | 34 | 245 | 4.8 | 19.3 | 0.00 | 0.00 | 0.00 | 60 | 1013.9 |
| 20260904150722 | 33 | 245 | 4.8 | 19.3 | 0.00 | 0.00 | 0.00 | 60 | 1014.1 |
| 20260904150222 | 33 | 247 | 6.4 | 19.3 | 0.00 | 0.00 | 0.00 | 61 | 1013.7 |
| 20260904145722 | 33 | 215 | 4.8 | 19.3 | 0.00 | 0.00 | 0.00 | 62 | 1013.8 |
| 20260904145222 | 32 | 222 | 4.8 | 19.3 | 0.00 | 0.00 | 0.00 | 63 | 1014.0 |
| 20260904144722 | 32 | 218 | 6.4 | 19.3 | 0.00 | 0.00 | 0.00 | 63 | 1013.7 |
| 20260904144222 | 32 | 229 | 4.8 | 19.3 | 0.00 | 0.00 | 0.00 | 64 | 1013.9 |
| 20260904143721 | 32 | 208 | 8.0 | 19.3 | 0.00 | 0.00 | 0.00 | 64 | 1013.9 |
| 20260904142704 | 32 | 224 | 4.8 | 19.3 | 0.00 | 0.00 | 0.00 | 66 | 1013.4 |
| 20260904142204 | 31 | 217 | 3.2 | 19.3 | 0.00 | 0.00 | 0.00 | 67 | 1013.8 |
| 20260904141704 | 31 | 229 | 4.8 | 19.3 | 0.00 | 0.00 | 0.00 | 68 | 1013.6 |
| 20260904141204 | 31 | 214 | 4.8 | 19.3 | 0.00 | 0.00 | 0.00 | 68 | 1013.5 |
| 20260904140704 | 30 | 233 | 3.2 | 19.3 | 0.00 | 0.00 | 0.00 | 70 | 1013.7 |
| 20260904140204 | 30 | 236 | 4.8 | 19.3 | 0.00 | 0.00 | 0.00 | 71 | 1013.7 |
| 20260904135704 | 30 | 225 | 3.2 | 19.3 | 0.00 | 0.00 | 0.00 | 71 | 1013.7 |
| 20260904135203 | 30 | 235 | 3.2 | 19.3 | 0.00 | 0.00 | 0.00 | 72 | 1013.4 |
| 20260904134703 | 30 | 225 | 3.2 | 19.3 | 0.00 | 0.00 | 0.00 | 72 | 1013.5 |
| 20260904134203 | 30 | 227 | 3.2 | 19.3 | 0.00 | 0.00 | 0.00 | 74 | 1013.5 |
| 20260904133702 | 29 | 200 | 1.6 | 19.3 | 0.00 | 0.00 | 0.00 | 74 | 1013.7 |
| 20260904132647 | 28 | 210 | 3.2 | 19.3 | 0.00 | 0.00 | 0.00 | 75 | 1013.3 |
| 20260904132146 | 28 | 206 | 3.2 | 19.3 | 0.00 | 0.00 | 0.00 | 76 | 1013.6 |
| 20260904131645 | 28 | 224 | 3.2 | 19.3 | 0.00 | 0.00 | 0.00 | 76 | 1013.6 |
| 20260904131145 | 28 | 218 | 3.2 | 19.3 | 0.00 | 0.00 | 0.00 | 78 | 1013.6 |
| 20260904130129 | 27 | 199 | 3.2 | 19.3 | 0.00 | 0.00 | 0.00 | 80 | 1013.6 |
| 20260904125629 | 27 | 202 | 3.2 | 19.3 | 0.00 | 0.00 | 0.00 | 82 | 1013.3 |
| 20260904125129 | 26 | 204 | 1.6 | 19.3 | 0.00 | 0.00 | 0.00 | 83 | 1013.4 |
| 20260904124628 | 26 | 208 | 0.0 | 19.3 | 0.00 | 0.00 | 0.00 | 85 | 1013.4 |
| 20260904124127 | 26 | 208 | 1.6 | 19.3 | 0.00 | 0.00 | 0.00 | 85 | 1013.5 |
| 20260904123626 | 26 | 203 | 1.6 | 19.3 | 0.00 | 0.00 | 0.00 | 86 | 1013.4 |
| 20260904122611 | 25 | 201 | 3.2 | 19.3 | 0.00 | 0.00 | 0.00 | 86 | 1013.3 |
| 20260904122110 | 25 | 188 | 3.2 | 19.3 | 0.00 | 0.00 | 0.00 | 86 | 1013.1 |
| 20260904121610 | 25 | 196 | 1.6 | 19.3 | 0.00 | 0.00 | 0.00 | 87 | 1012.9 |
| 20260904121109 | 25 | 194 | 3.2 | 19.3 | 0.00 | 0.00 | 0.00 | 87 | 1013.0 |
| 20260904120608 | 25 | 199 | 3.2 | 19.3 | 0.00 | 0.00 | 0.00 | 87 | 1012.8 |
| 20260904120107 | 25 | 192 | 1.6 | 19.3 | 0.00 | 0.00 | 0.00 | 88 | 1013.2 |
| 20260904115607 | 25 | 181 | 1.6 | 19.3 | 0.00 | 0.00 | 0.00 | 88 | 1013.0 |
| 20260904115106 | 25 | 181 | 0.0 | 19.3 | 0.00 | 0.00 | 0.00 | 88 | 1012.9 |
| 20260904114606 | 25 | 181 | 0.0 | 19.3 | 0.00 | 0.00 | 0.00 | 87 | 1012.8 |
| 20260904114106 | 25 | 181 | 0.0 | 19.3 | 0.00 | 0.00 | 0.00 | 87 | 1012.9 |
| 20260904113050 | 25 | 181 | 0.0 | 19.3 | 0.00 | 0.00 | 0.00 | 87 | 1012.6 |
| 20260904112034 | 25 | 185 | 1.6 | 19.3 | 0.00 | 0.00 | 0.00 | 87 | 1012.4 |
| 20260904111533 | 25 | 185 | 1.6 | 19.3 | 0.00 | 0.00 | 0.00 | 87 | 1012.7 |
| 20260904110517 | 25 | 184 | 1.6 | 19.3 | 0.00 | 0.00 | 0.00 | 87 | 1012.2 |
| 20260904110016 | 25 | 184 | 0.0 | 19.3 | 0.00 | 0.00 | 0.00 | 87 | 1012.3 |
| 20260904105516 | 25 | 191 | 3.2 | 19.3 | 0.00 | 0.00 | 0.00 | 87 | 1012.0 |
| 20260904105015 | 25 | 198 | 1.6 | 19.3 | 0.00 | 0.00 | 0.00 | 87 | 1012.4 |
| 20260904104515 | 25 | 198 | 0.0 | 19.3 | 0.00 | 0.00 | 0.00 | 86 | 1012.2 |
| 20260904104015 | 25 | 198 | 0.0 | 19.3 | 0.00 | 0.00 | 0.00 | 86 | 1012.1 |
| 20260904103515 | 25 | 194 | 3.2 | 19.3 | 0.00 | 0.00 | 0.00 | 86 | 1012.1 |
| 20260904103014 | 25 | 197 | 3.2 | 19.3 | 0.00 | 0.00 | 0.00 | 86 | 1012.3 |
| 20260904102513 | 25 | 191 | 3.2 | 19.3 | 0.00 | 0.00 | 0.00 | 86 | 1012.5 |
| 20260904102013 | 25 | 205 | 1.6 | 19.3 | 0.00 | 0.00 | 0.00 | 86 | 1012.2 |
| 20260904101513 | 25 | 198 | 1.6 | 19.3 | 0.00 | 0.00 | 0.00 | 86 | 1012.3 |
| 20260904101013 | 25 | 182 | 3.2 | 19.3 | 0.00 | 0.00 | 0.00 | 85 | 1012.3 |
| 20260904095957 | 25 | 199 | 1.6 | 19.3 | 0.00 | 0.00 | 0.00 | 85 | 1012.4 |
| 20260904095456 | 25 | 196 | 3.2 | 19.3 | 0.00 | 0.00 | 0.00 | 85 | 1012.3 |
| 20260904094955 | 25 | 199 | 1.6 | 19.3 | 0.00 | 0.00 | 0.00 | 85 | 1012.3 |
| 20260904092909 | 25 | 187 | 0.0 | 19.3 | 0.00 | 0.00 | 0.00 | 85 | 1012.2 |
| 20260904092409 | 25 | 186 | 1.6 | 19.3 | 0.00 | 0.00 | 0.00 | 85 | 1012.0 |
| 20260904091353 | 25 | 183 | 0.0 | 19.3 | 0.00 | 0.00 | 0.00 | 85 | 1012.1 |
| 20260904090853 | 25 | 184 | 0.0 | 19.3 | 0.00 | 0.00 | 0.00 | 85 | 1012.3 |
| 20260904090353 | 26 | 184 | 0.0 | 19.3 | 0.00 | 0.00 | 0.00 | 85 | 1012.1 |
| 20260904085852 | 26 | 184 | 0.0 | 19.3 | 0.00 | 0.00 | 0.00 | 85 | 1012.3 |
| 20260904085352 | 26 | 184 | 1.6 | 19.3 | 0.00 | 0.00 | 0.00 | 85 | 1011.9 |
| 20260904084851 | 26 | 184 | 0.0 | 19.3 | 0.00 | 0.00 | 0.00 | 85 | 1012.5 |
| 20260904084351 | 26 | 184 | 1.6 | 19.3 | 0.00 | 0.00 | 0.00 | 85 | 1012.3 |
| 20260904083851 | 26 | 184 | 1.6 | 19.3 | 0.00 | 0.00 | 0.00 | 85 | 1012.2 |
| 20260904083350 | 26 | 184 | 0.0 | 19.3 | 0.00 | 0.00 | 0.00 | 85 | 1012.1 |
| 20260904082849 | 26 | 184 | 0.0 | 19.3 | 0.00 | 0.00 | 0.00 | 85 | 1012.1 |
| 20260904082349 | 26 | 184 | 0.0 | 19.3 | 0.00 | 0.00 | 0.00 | 84 | 1012.2 |